When you browse on this site, cookies collect data to enhance your experience and personalize the content and advertising you see.
Visit our Privacy Policy to learn more. By continuing to use the site, you agree to this use of cookies and data.
  • In Hungary
  • List of Countries
  • For 7 days
  • Water Temperature
  • Weather Map
  • News
  • Weather Widgets
  • user-avatar
    Login

    Hourly Weather Korneuburg

    Today, 13 December, Friday

    Time Temperature Precipitation Wind Pressure Humidity
    00:00 +2°C° 0.1 mm 1 mps 734 mmHg 98%
    01:00 -1°C° 0 mm 2 mps 734 mmHg 96%
    02:00 -1°C° 0 mm 2 mps 733 mmHg 95%
    03:00 -1°C° 0 mm 3 mps 731 mmHg 95%
    04:00 -1°C° 0 mm 4 mps 730 mmHg 94%
    05:00 -2°C° 0 mm 5 mps 730 mmHg 91%
    06:00 -2°C° 0 mm 5 mps 729 mmHg 88%
    07:00 -2°C° 0 mm 5 mps 728 mmHg 86%
    08:00 -2°C° 0 mm 5 mps 727 mmHg 83%
    09:00 -2°C° 0 mm 6 mps 727 mmHg 81%
    10:00 -2°C° 0 mm 6 mps 726 mmHg 78%
    11:00 -1°C° 0 mm 6 mps 725 mmHg 75%
    12:00 +1°C° 0 mm 6 mps 725 mmHg 72%
    13:00 0°C° 0 mm 5 mps 725 mmHg 71%
    14:00 0°C° 0 mm 4 mps 725 mmHg 72%
    15:00 +1°C° 0 mm 3 mps 725 mmHg 72%
    16:00 +2°C° 0 mm 2 mps 725 mmHg 73%
    17:00 +2°C° 0 mm 2 mps 726 mmHg 74%
    18:00 +2°C° 0 mm 2 mps 727 mmHg 74%
    19:00 +3°C° 0 mm 1 mps 728 mmHg 74%
    20:00 +3°C° 0 mm 1 mps 728 mmHg 76%
    21:00 +3°C° 0 mm 1 mps 729 mmHg 78%
    22:00 +2°C° 0 mm 1 mps 729 mmHg 79%
    23:00 +3°C° 0 mm 1 mps 730 mmHg 81%

    Tomorrow, 14 December, Saturday

    Time Temperature Precipitation Wind Pressure Humidity
    00:00 +2°C° 0 mm 2 mps 730 mmHg 84%
    01:00 +2°C° 0 mm 2 mps 731 mmHg 86%
    02:00 +2°C° 0 mm 2 mps 731 mmHg 85%
    03:00 +2°C° 0 mm 3 mps 731 mmHg 84%
    04:00 +2°C° 0 mm 3 mps 731 mmHg 83%
    05:00 +2°C° 0 mm 3 mps 731 mmHg 81%
    06:00 +2°C° 0 mm 3 mps 731 mmHg 80%
    07:00 +2°C° 0 mm 3 mps 732 mmHg 78%
    08:00 +3°C° 0 mm 2 mps 732 mmHg 76%
    09:00 +4°C° 0 mm 2 mps 732 mmHg 73%
    10:00 +4°C° 0 mm 2 mps 733 mmHg 71%
    11:00 +4°C° 0.1 mm 3 mps 733 mmHg 68%
    12:00 +5°C° 0.1 mm 3 mps 733 mmHg 66%
    13:00 +7°C° 0.1 mm 3 mps 733 mmHg 64%
    14:00 +5°C° 0 mm 4 mps 734 mmHg 66%
    15:00 +5°C° 0 mm 4 mps 735 mmHg 67%
    16:00 +5°C° 0 mm 4 mps 736 mmHg 69%
    17:00 +5°C° 0 mm 4 mps 737 mmHg 69%
    18:00 +4°C° 0 mm 4 mps 738 mmHg 69%
    19:00 +4°C° 0 mm 4 mps 739 mmHg 69%
    20:00 +4°C° 0 mm 3 mps 739 mmHg 72%
    21:00 +3°C° 0 mm 3 mps 740 mmHg 74%
    22:00 +4°C° 0 mm 2 mps 741 mmHg 76%
    23:00 +4°C° 0 mm 2 mps 741 mmHg 76%

    Day after tomorrow, 15 December, Sunday

    Time Temperature Precipitation Wind Pressure Humidity
    00:00 +4°C° 0 mm 3 mps 742 mmHg 76%
    01:00 +4°C° 0 mm 3 mps 742 mmHg 75%
    02:00 +5°C° 0 mm 2 mps 742 mmHg 75%
    03:00 +5°C° 0 mm 2 mps 742 mmHg 74%
    04:00 +6°C° 0 mm 2 mps 742 mmHg 73%
    05:00 +5°C° 0 mm 2 mps 742 mmHg 72%
    06:00 +5°C° 0 mm 2 mps 742 mmHg 71%
    07:00 +3°C° 0 mm 3 mps 742 mmHg 70%
    08:00 +4°C° 0 mm 3 mps 742 mmHg 66%
    09:00 +5°C° 0 mm 3 mps 742 mmHg 63%
    10:00 +5°C° 0 mm 3 mps 743 mmHg 59%
    11:00 +7°C° 0 mm 3 mps 743 mmHg 60%
    12:00 +7°C° 0 mm 3 mps 743 mmHg 60%
    13:00 +7°C° 0 mm 3 mps 743 mmHg 61%
    14:00 +7°C° 0 mm 3 mps 743 mmHg 66%
    15:00 +5°C° 0 mm 3 mps 744 mmHg 71%
    16:00 +5°C° 0 mm 2 mps 744 mmHg 75%
    17:00 +5°C° 0 mm 2 mps 745 mmHg 77%
    18:00 +5°C° 0 mm 2 mps 745 mmHg 78%
    19:00 +5°C° 0 mm 2 mps 746 mmHg 79%
    20:00 +6°C° 0 mm 1 mps 746 mmHg 79%
    21:00 +6°C° 0 mm 1 mps 746 mmHg 80%
    22:00 +6°C° 0 mm 1 mps 747 mmHg 80%
    23:00 +5°C° 0 mm 1 mps 747 mmHg 81%

    16 December, Monday

    Time Temperature Precipitation Wind Pressure Humidity
    00:00 +5°C° 0 mm 1 mps 747 mmHg 82%
    01:00 +5°C° 0 mm 1 mps 747 mmHg 82%
    02:00 +4°C° 0 mm 2 mps 747 mmHg 84%
    03:00 +3°C° 0 mm 2 mps 747 mmHg 87%
    04:00 +3°C° 0 mm 2 mps 746 mmHg 89%
    05:00 +3°C° 0 mm 2 mps 746 mmHg 90%
    06:00 +3°C° 0 mm 2 mps 746 mmHg 92%
    07:00 +3°C° 0 mm 2 mps 746 mmHg 94%
    08:00 +3°C° 0 mm 2 mps 746 mmHg 92%
    09:00 +4°C° 0 mm 2 mps 746 mmHg 91%
    10:00 +5°C° 0 mm 2 mps 746 mmHg 90%
    11:00 +5°C° 0 mm 2 mps 746 mmHg 88%
    12:00 +6°C° 0 mm 2 mps 745 mmHg 86%
    13:00 +8°C° 0 mm 1 mps 745 mmHg 84%
    14:00 +7°C° 0 mm 1 mps 745 mmHg 86%
    15:00 +7°C° 0 mm 1 mps 744 mmHg 89%
    16:00 +7°C° 0 mm 1 mps 744 mmHg 91%
    17:00 +6°C° 0 mm 1 mps 744 mmHg 92%
    18:00 +6°C° 0 mm 1 mps 744 mmHg 92%
    19:00 +6°C° 0 mm 1 mps 744 mmHg 93%
    20:00 +6°C° 0 mm 1 mps 744 mmHg 93%
    21:00 +6°C° 0 mm 1 mps 743 mmHg 94%
    22:00 +6°C° 0 mm 1 mps 743 mmHg 94%
    23:00 +5°C° 0 mm 0 mps 743 mmHg 94%

    17 December, Tuesday

    Time Temperature Precipitation Wind Pressure Humidity
    00:00 +5°C° 0 mm 0 mps 743 mmHg 95%
    01:00 +4°C° 0 mm 0 mps 743 mmHg 95%
    02:00 +4°C° 0 mm 0 mps 743 mmHg 95%
    03:00 +4°C° 0 mm 0 mps 742 mmHg 95%
    04:00 +4°C° 0 mm 0 mps 742 mmHg 95%
    05:00 +4°C° 0 mm 0 mps 742 mmHg 95%
    06:00 +4°C° 0 mm 0 mps 742 mmHg 95%
    07:00 +5°C° 0 mm 1 mps 742 mmHg 95%
    08:00 +4°C° 0 mm 0 mps 742 mmHg 93%
    09:00 +5°C° 0 mm 0 mps 742 mmHg 91%
    10:00 +5°C° 0 mm 0 mps 743 mmHg 89%
    11:00 +6°C° 0 mm 0 mps 742 mmHg 86%
    12:00 +7°C° 0 mm 0 mps 742 mmHg 83%
    13:00 +7°C° 0 mm 0 mps 742 mmHg 79%
    14:00 +7°C° 0 mm 0 mps 742 mmHg 82%
    15:00 +6°C° 0 mm 0 mps 742 mmHg 84%
    16:00 +6°C° 0 mm 0 mps 742 mmHg 86%
    17:00 +6°C° 0 mm 0 mps 742 mmHg 86%
    18:00 +6°C° 0 mm 0 mps 742 mmHg 86%
    19:00 +6°C° 0 mm 0 mps 743 mmHg 85%
    20:00 +7°C° 0 mm 1 mps 743 mmHg 85%
    21:00 +7°C° 0 mm 1 mps 743 mmHg 85%
    22:00 +7°C° 0 mm 1 mps 743 mmHg 85%
    23:00 +7°C° 0 mm 1 mps 743 mmHg 86%

    18 December, Wednesday

    Time Temperature Precipitation Wind Pressure Humidity
    00:00 +7°C° 0 mm 1 mps 743 mmHg 86%
    01:00 +7°C° 0 mm 1 mps 743 mmHg 86%
    02:00 +7°C° 0 mm 1 mps 743 mmHg 87%
    03:00 +7°C° 0 mm 1 mps 743 mmHg 87%
    04:00 +6°C° 0 mm 1 mps 743 mmHg 87%
    05:00 +6°C° 0 mm 1 mps 744 mmHg 88%
    06:00 +6°C° 0 mm 1 mps 744 mmHg 88%
    07:00 +6°C° 0 mm 1 mps 744 mmHg 89%
    08:00 +5°C° 0 mm 0 mps 744 mmHg 86%
    09:00 +6°C° 0 mm 0 mps 745 mmHg 84%
    10:00 +7°C° 0 mm 0 mps 745 mmHg 81%
    11:00 +8°C° 0 mm 0 mps 745 mmHg 79%
    12:00 +9°C° 0 mm 1 mps 745 mmHg 77%
    13:00 +10°C° 0 mm 1 mps 745 mmHg 74%
    14:00 +9°C° 0 mm 1 mps 745 mmHg 78%
    15:00 +9°C° 0 mm 1 mps 745 mmHg 82%
    16:00 +8°C° 0 mm 1 mps 745 mmHg 86%
    17:00 +7°C° 0 mm 0 mps 745 mmHg 87%
    18:00 +7°C° 0 mm 0 mps 745 mmHg 88%
    19:00 +6°C° 0 mm 0 mps 745 mmHg 89%
    20:00 +6°C° 0 mm 0 mps 745 mmHg 90%
    21:00 +6°C° 0 mm 0 mps 745 mmHg 90%
    22:00 +6°C° 0 mm 0 mps 745 mmHg 91%
    23:00 +6°C° 0 mm 0 mps 745 mmHg 91%
    Show more